Change the Weather History Date:

Monday, July 1, 2013

  Actual Average Record
Temperature  
Mean Temperature 74 °F -  
Max Temperature 82 °F 89 °F 104 °F (1969)
Min Temperature 66 °F 68 °F 51 °F (1924)
Cooling Degree Days 9    
Growing Degree Days 24 (Base 50)    
Moisture  
Dew Point 62 °F    
Average Humidity 73    
Maximum Humidity 88    
Minimum Humidity 45    
Precipitation  
Precipitation 0.01 in - - ()
Sea Level Pressure  
Sea Level Pressure 29.89 in    
Wind  
Wind Speed 9 mph (North)    
Max Wind Speed 17 mph    
Max Gust Speed 23 mph    
Visibility 10 miles    
Events Rain    
Averages and records for this station are not official NWS values.
T = Trace of Precipitation, MM = Missing Value Source: NWS Daily Summary

Daily Weather History Graph

Daily Weather History Graph

Search for Another Location

Airport or City:

Trip Planner

Search our weather history database for the weather conditions in past years. The results will help you decide how hot, cold, wet, or windy it might be!

Date:

Astronomy

Jul. 01, 2013 Rise Set
Actual Time 5:46 AM CDT 8:24 PM CDT
Civil Twilight 5:15 AM CDT 8:54 PM CDT
Nautical Twilight 4:37 AM CDT 9:32 PM CDT
Astronomical Twilight 3:54 AM CDT 10:15 PM CDT
Moon 1:10 AM CDT (7/1) 2:44 PM CDT (7/1)
Length of Visible Light 15h 39m
Length of Day
14h 38m
Waning Crescent, 35% of the Moon is Illuminated
Jul 1
Waning Crescent
Jul 8
New
Jul 15
First Quarter
Jul 22
Full
Jul 29
Last Quarter

Hourly Weather History & Observations

Time (CDT) Temp. Heat Index Dew Point Humidity Pressure Visibility Wind Dir Wind Speed Gust Speed Precip Events Conditions
12:53 AM 68.0 °F - 64.0 °F 87% 29.84 in 10.0 mi NNW 8.1 mph - 0.01 in   Mostly Cloudy
1:53 AM 66.9 °F - 63.0 °F 87% 29.83 in 10.0 mi NNW 9.2 mph - N/A   Clear
2:53 AM 66.9 °F - 63.0 °F 87% 29.83 in 10.0 mi NNW 9.2 mph - N/A   Scattered Clouds
3:53 AM 66.9 °F - 63.0 °F 87% 29.83 in 10.0 mi NNW 9.2 mph - N/A   Overcast
4:53 AM 66.9 °F - 63.0 °F 87% 29.85 in 10.0 mi NNW 6.9 mph - N/A   Mostly Cloudy
5:53 AM 66.0 °F - 62.1 °F 87% 29.86 in 10.0 mi NNW 6.9 mph - N/A   Partly Cloudy
6:14 AM 66.2 °F - 62.6 °F 88% 29.87 in 9.0 mi NNW 6.9 mph - N/A   Mostly Cloudy
6:38 AM 66.2 °F - 62.6 °F 88% 29.87 in 10.0 mi NNW 5.8 mph - N/A   Overcast
6:53 AM 66.9 °F - 62.1 °F 84% 29.87 in 10.0 mi NNW 6.9 mph - N/A   Mostly Cloudy
7:08 AM 66.2 °F - 62.6 °F 88% 29.88 in 10.0 mi NNW 9.2 mph - N/A   Overcast
7:53 AM 69.1 °F - 63.0 °F 81% 29.88 in 10.0 mi NNW 9.2 mph - N/A   Mostly Cloudy
8:00 AM 69.8 °F - 62.6 °F 78% 29.89 in 10.0 mi NNW 8.1 mph - N/A   Scattered Clouds
8:46 AM 69.8 °F - 62.6 °F 78% 29.90 in 10.0 mi North 10.4 mph - N/A   Overcast
8:53 AM 71.1 °F - 62.1 °F 73% 29.89 in 10.0 mi North 11.5 mph - N/A   Mostly Cloudy
9:12 AM 71.6 °F - 62.6 °F 73% 29.90 in 10.0 mi NNW 12.7 mph - N/A   Mostly Cloudy
9:21 AM 71.6 °F - 62.6 °F 73% 29.91 in 10.0 mi North 15.0 mph - N/A   Mostly Cloudy
9:53 AM 72.0 °F - 62.1 °F 71% 29.90 in 10.0 mi North 8.1 mph - N/A   Mostly Cloudy
10:53 AM 75.0 °F - 61.0 °F 62% 29.90 in 10.0 mi North 15.0 mph - N/A   Mostly Cloudy
11:53 AM 77.0 °F - 61.0 °F 58% 29.90 in 10.0 mi NNW 17.3 mph 21.9 mph N/A   Partly Cloudy
12:53 PM 79.0 °F - 61.0 °F 54% 29.90 in 10.0 mi NNE 13.8 mph - N/A   Mostly Cloudy
1:53 PM 80.1 °F 80.9 °F 60.1 °F 50% 29.89 in 10.0 mi NNE 15.0 mph 23.0 mph N/A   Mostly Cloudy
2:53 PM 82.0 °F 82.1 °F 59.0 °F 45% 29.88 in 10.0 mi North 13.8 mph 19.6 mph N/A   Scattered Clouds
3:53 PM 79.0 °F - 59.0 °F 50% 29.88 in 10.0 mi North 10.4 mph - N/A   Overcast
4:53 PM 75.9 °F - 61.0 °F 60% 29.90 in 10.0 mi NE 10.4 mph - N/A   Overcast
5:53 PM 73.0 °F - 62.1 °F 68% 29.91 in 10.0 mi NNE 6.9 mph - 0.00 in   Overcast
6:53 PM 72.0 °F - 63.0 °F 73% 29.93 in 10.0 mi North 5.8 mph - 0.00 in   Overcast
7:53 PM 70.0 °F - 61.0 °F 73% 29.94 in 9.0 mi North 12.7 mph - 0.00 in Rain Light Rain
8:53 PM 69.1 °F - 61.0 °F 75% 29.94 in 10.0 mi North 9.2 mph - 0.00 in   Overcast
9:53 PM 70.0 °F - 60.1 °F 71% 29.94 in 9.0 mi North 9.2 mph - 0.00 in   Overcast
10:53 PM 70.0 °F - 57.9 °F 65% 29.93 in 9.0 mi North 9.2 mph - N/A   Scattered Clouds
11:53 PM 68.0 °F - 59.0 °F 73% 29.93 in 8.0 mi NNW 6.9 mph - N/A   Mostly Cloudy